Weather History for KDBQ - March, 2014

Change the Weather History Date:

Sunday, March 16, 2014

  Actual Average Record
Temperature  
Mean Temperature 21 °F 35 °F  
Max Temperature 28 °F 44 °F 78 °F (1945)
Min Temperature 13 °F 27 °F -4 °F (1900)
Degree Days  
Heating Degree Days 44 30  
Month to date heating degree days 682 526  
Since 1 July heating degree days 7058 5919  
Cooling Degree Days 0 0  
Month to date cooling degree days 0 0  
Year to date cooling degree days 0 0  
Moisture  
Dew Point 13 °F    
Average Humidity 72    
Maximum Humidity 84    
Minimum Humidity 59    
Precipitation  
Precipitation 0.00 in 0.08 in 1.23 in (1876)
Month to date precipitation 0.63 1.10  
Year to date precipitation 3.11 3.71  
Snow  
Snow 0.00 in 0.20 in - ()
Month to date snowfall 9.7 3.7  
Since 1 July snowfall 61.4 37.3  
Snow Depth 2.00 in    
Sea Level Pressure  
Sea Level Pressure 30.31 in    
Wind  
Wind Speed 13 mph (ENE)    
Max Wind Speed 24 mph    
Max Gust Speed 30 mph    
Visibility 10 miles    
Events      
T = Trace of Precipitation, MM = Missing Value Source: NWS Daily Summary

Daily Weather History Graph

Daily Weather History Graph

Search for Another Location

Airport or City:

Trip Planner

Search our weather history database for the weather conditions in past years. The results will help you decide how hot, cold, wet, or windy it might be!

Date:

Astronomy

Mar. 16, 2014 Rise Set
Actual Time 7:12 AM CDT 7:10 PM CDT
Civil Twilight 6:45 AM CDT 7:38 PM CDT
Nautical Twilight 6:12 AM CDT 8:11 PM CDT
Astronomical Twilight 5:39 AM CDT 8:44 PM CDT
Moon 7:29 PM CDT (3/16) 6:56 AM CDT (3/16)
Length of Visible Light 12h 53m
Length of Day
11h 57m
Full, 100% of the Moon is Illuminated
Mar 16
Full
Mar 16
Full
Mar 23
Last Quarter
Mar 30
New
Apr 7
First Quarter

Hourly Weather History & Observations

Time (CDT) Temp. Windchill Dew Point Humidity Pressure Visibility Wind Dir Wind Speed Gust Speed Precip Events Conditions
12:53 AM 28.0 °F 17.5 °F 19.9 °F 72% 30.26 in 10.0 mi NE 12.7 mph - N/A   Overcast
1:53 AM 27.0 °F 17.3 °F 18.0 °F 69% 30.29 in 10.0 mi NE 10.4 mph - N/A   Mostly Cloudy
2:14 AM 27.0 °F 16.7 °F 19.0 °F 72% 30.26 in 10.0 mi NE 11.5 mph - N/A   Mostly Cloudy
2:53 AM 27.0 °F 15.6 °F 23.0 °F 85% 30.31 in 10.0 mi ENE 13.8 mph - N/A   Overcast
3:18 AM 26.1 °F 13.1 °F 21.9 °F 84% 30.27 in 10.0 mi East 17.3 mph 26.5 mph N/A   Overcast
3:53 AM 24.1 °F 10.6 °F 19.9 °F 84% 30.32 in 10.0 mi ENE 17.3 mph 27.6 mph N/A   Overcast
4:27 AM 23.0 °F 7.6 °F 18.0 °F 81% 30.28 in 10.0 mi ENE 21.9 mph - N/A   Overcast
4:53 AM 21.9 °F 5.8 °F 17.1 °F 82% 30.33 in 10.0 mi ENE 23.0 mph 28.8 mph N/A   Overcast
5:53 AM 19.9 °F 4.3 °F 15.1 °F 81% 30.36 in 10.0 mi NE 19.6 mph 27.6 mph N/A   Overcast
6:30 AM 19.0 °F 4.0 °F 12.9 °F 77% 30.30 in 10.0 mi ENE 17.3 mph - N/A   Scattered Clouds
6:41 AM 19.0 °F 4.0 °F 12.9 °F 77% 30.30 in 10.0 mi ENE 17.3 mph 27.6 mph N/A   Mostly Cloudy
6:53 AM 18.0 °F 1.3 °F 12.9 °F 81% 30.35 in 10.0 mi NE 20.7 mph - N/A   Mostly Cloudy
7:14 AM 17.1 °F 1.5 °F 10.9 °F 77% 30.32 in 10.0 mi NE 17.3 mph 25.3 mph N/A   Partly Cloudy
7:53 AM 14.0 °F -2.5 °F 8.1 °F 77% 30.39 in 10.0 mi NE 17.3 mph 26.5 mph N/A   Clear
8:53 AM 14.0 °F -2.5 °F 5.0 °F 67% 30.40 in 10.0 mi NE 17.3 mph - N/A   Clear
9:53 AM 15.1 °F 0.5 °F 6.1 °F 68% 30.41 in 10.0 mi NE 13.8 mph - N/A   Clear
10:53 AM 16.0 °F 1.1 °F 7.0 °F 68% 30.41 in 10.0 mi NE 15.0 mph - N/A   Clear
11:53 AM 18.0 °F 4.8 °F 8.1 °F 65% 30.42 in 10.0 mi NNE 12.7 mph - N/A   Clear
12:53 PM 19.9 °F 6.7 °F 9.0 °F 62% 30.42 in 10.0 mi ENE 13.8 mph - N/A   Clear
1:53 PM 21.0 °F 8.1 °F 10.0 °F 63% 30.38 in 10.0 mi ENE 13.8 mph - N/A   Clear
2:53 PM 21.9 °F 11.0 °F 10.9 °F 63% 30.34 in 10.0 mi NE 10.4 mph 20.7 mph N/A   Clear
3:53 PM 24.1 °F 12.5 °F 12.9 °F 62% 30.30 in 10.0 mi NE 12.7 mph - N/A   Clear
4:53 PM 24.1 °F 12.0 °F 12.0 °F 60% 30.27 in 10.0 mi NE 13.8 mph - N/A   Clear
5:53 PM 24.1 °F 14.4 °F 12.0 °F 60% 30.27 in 10.0 mi ENE 9.2 mph 20.7 mph N/A   Clear
6:53 PM 23.0 °F 12.4 °F 10.9 °F 60% 30.27 in 10.0 mi NE 10.4 mph - N/A   Clear
7:53 PM 21.0 °F 12.4 °F 10.9 °F 65% 30.27 in 10.0 mi NE 6.9 mph - N/A   Clear
8:53 PM 19.9 °F 12.1 °F 10.0 °F 65% 30.24 in 10.0 mi ENE 5.8 mph - N/A   Clear
9:53 PM 19.0 °F 9.0 °F 10.0 °F 68% 30.23 in 10.0 mi East 8.1 mph - N/A   Clear
10:53 PM 17.1 °F 7.6 °F 10.9 °F 77% 30.22 in 10.0 mi East 6.9 mph - N/A   Clear
11:53 PM 17.1 °F 10.0 °F 10.0 °F 74% 30.18 in 10.0 mi ESE 4.6 mph - N/A   Clear